FW5667 Weather Reports


time (UTC)temp
F
wind
direction
speed
knots
gust
knots
rain 1hr
in
rain 24hr
in
rain mn
in
humidity
%
barometer
mb
20200531082032 49 0 0.0 1.7 0.00 0.33 0.00 95 1015.8
20200531081621 50 0 0.0 1.7 0.00 0.33 0.00 95 1015.9
20200531081035 50 229 0.9 1.7 0.00 0.33 0.00 95 1015.7
20200531080525 50 0 0.0 1.7 0.00 0.33 0.00 95 1015.6
20200531080113 50 274 0.0 1.7 0.00 0.33 0.00 95 1015.6
20200531075546 50 0 0.0 1.7 0.00 0.33 0.00 95 1015.6
20200531075023 50 274 0.0 1.7 0.00 0.33 0.00 95 1015.4
20200531074601 50 0 0.0 1.7 0.01 0.33 0.00 95 1015.6
20200531074024 50 0 0.0 1.7 0.01 0.33 0.00 95 1015.5
20200531073532 50 0 0.0 1.7 0.01 0.33 0.00 95 1015.5
20200531073024 50 0 0.0 0.0 0.01 0.33 0.00 95 1015.4
20200531072531 50 0 0.0 0.0 0.01 0.33 0.00 95 1015.5
20200531072033 50 0 0.0 0.0 0.01 0.33 0.00 95 1015.5
20200531071647 50 0 0.0 0.0 0.01 0.33 0.00 95 1015.5
20200531071036 50 0 0.0 0.0 0.01 0.33 0.00 95 1015.7
20200531070525 50 0 0.0 0.0 0.01 0.33 0.00 95 1015.7
20200531070037 50 0 0.0 0.0 0.01 0.33 0.00 95 1015.6
20200531065527 50 0 0.0 0.0 0.01 0.33 0.33 95 1015.6
20200531065024 50 0 0.0 0.0 0.01 0.33 0.33 94 1015.6
20200531064605 50 0 0.0 0.0 0.00 0.32 0.32 95 1015.6
20200531064034 50 0 0.0 0.0 0.00 0.32 0.32 94 1015.7
20200531063525 50 0 0.0 0.0 0.00 0.32 0.32 94 1015.5
20200531063028 50 0 0.0 0.9 0.00 0.32 0.32 94 1015.7
20200531062525 50 0 0.0 0.9 0.00 0.32 0.32 94 1015.7
20200531062032 50 0 0.0 0.9 0.00 0.32 0.32 94 1015.8
20200531061550 50 275 0.0 1.7 0.00 0.32 0.32 94 1015.8
20200531061027 50 0 0.9 2.6 0.00 0.32 0.32 92 1015.8
20200531060524 50 0 0.0 2.6 0.00 0.32 0.32 92 1015.9
20200531060037 50 274 0.9 5.2 0.00 0.32 0.32 92 1015.8
20200531055533 50 232 1.7 5.2 0.00 0.32 0.32 93 1015.7
20200531055026 51 319 1.7 5.2 0.00 0.32 0.32 94 1015.6
20200531054612 51 229 0.0 0.0 0.01 0.32 0.32 95 1015.6
20200531054024 51 0 0.0 2.6 0.01 0.32 0.32 95 1015.5
20200531053532 51 0 0.0 2.6 0.01 0.32 0.32 95 1015.4
20200531053105 51 0 0.0 1.7 0.01 0.32 0.32 95 1015.5
20200531052527 51 0 0.0 1.7 0.01 0.32 0.32 95 1015.5
20200531052031 51 0 0.0 0.9 0.01 0.32 0.32 95 1015.3
20200531051541 51 0 0.0 0.9 0.01 0.32 0.32 95 1015.2
20200531051049 51 0 0.0 1.7 0.01 0.32 0.32 95 1015.2
20200531050542 51 0 0.0 1.7 0.01 0.32 0.32 95 1015.1
20200531050100 51 0 0.0 0.9 0.01 0.32 0.32 95 1015.0
20200531045524 51 0 0.0 0.0 0.01 0.32 0.32 94 1015.0
20200531045025 51 0 0.0 0.9 0.01 0.32 0.32 94 1015.0
20200531044609 51 0 0.0 0.9 0.00 0.31 0.31 94 1015.0
20200531044032 51 0 0.0 0.9 0.00 0.31 0.31 94 1015.1
20200531043525 51 0 0.0 0.0 0.00 0.31 0.31 94 1015.0
20200531043050 51 0 0.0 0.9 0.00 0.31 0.31 94 1015.1
20200531042531 51 0 0.0 0.9 0.00 0.31 0.31 94 1015.1
20200531042027 51 0 0.0 3.5 0.00 0.31 0.31 94 1015.1
20200531041554 51 0 0.0 3.5 0.00 0.31 0.31 93 1015.0
20200531041026 51 170 0.9 4.3 0.00 0.31 0.31 92 1015.0
20200531040529 51 0 0.0 4.3 0.00 0.31 0.31 92 1014.8
20200531040042 51 169 0.9 2.6 0.00 0.31 0.31 93 1014.8
20200531035523 51 237 0.9 2.6 0.00 0.31 0.31 93 1014.8
20200531035026 51 238 0.0 2.6 0.00 0.31 0.31 92 1014.7
20200531034606 51 238 0.9 2.6 0.00 0.31 0.31 91 1014.6
20200531034023 51 238 0.9 1.7 0.00 0.31 0.31 92 1014.5
20200531033526 52 0 0.0 2.6 0.00 0.31 0.31 91 1014.8
20200531033034 52 238 0.9 2.6 0.00 0.31 0.31 91 1014.9
20200531032525 51 0 0.0 2.6 0.00 0.31 0.31 91 1014.7
20200531032024 52 238 0.9 2.6 0.00 0.31 0.31 90 1014.4
20200531031554 52 0 0.0 1.7 0.00 0.31 0.31 91 1014.4
20200531031025 52 232 0.0 1.7 0.00 0.31 0.31 91 1014.6
20200531030525 52 232 0.0 2.6 0.00 0.31 0.31 91 1014.6
20200531030103 52 232 0.0 2.6 0.00 0.31 0.31 91 1014.6
20200531025525 52 232 0.0 3.5 0.00 0.31 0.31 91 1014.6
20200531025027 52 200 0.9 4.3 0.00 0.31 0.31 88 1014.6
20200531024535 53 0 0.0 5.2 0.00 0.31 0.31 90 1014.6
20200531024034 53 195 1.7 5.2 0.00 0.31 0.31 89 1014.6
20200531023527 53 196 0.0 2.6 0.00 0.31 0.31 90 1014.4
20200531023130 53 0 0.9 2.6 0.00 0.31 0.31 89 1014.3
20200531022524 53 186 0.9 2.6 0.00 0.31 0.31 90 1014.2
20200531022024 53 0 0.0 2.6 0.00 0.31 0.31 92 1014.1
20200531021526 53 183 0.0 2.6 0.00 0.31 0.31 92 1014.0
20200531021025 53 181 0.9 2.6 0.00 0.31 0.31 93 1013.9
20200531020530 53 0 0.0 1.7 0.00 0.31 0.31 92 1014.0
20200531020031 53 0 0.0 3.5 0.00 0.31 0.31 92 1013.9
20200531015523 53 150 0.9 3.5 0.00 0.31 0.31 91 1014.0
20200531015033 53 219 0.9 1.7 0.00 0.31 0.31 89 1013.8
20200531014634 53 0 0.0 1.7 0.00 0.31 0.31 87 1013.8
20200531014026 53 0 0.0 1.7 0.00 0.31 0.31 87 1013.6
20200531013532 53 0 0.0 0.9 0.00 0.31 0.31 90 1013.7
20200531013043 53 292 0.0 0.9 0.00 0.31 0.31 90 1013.7
20200531012524 53 0 0.0 0.0 0.00 0.31 0.31 90 1013.7
20200531012026 52 0 0.0 1.7 0.00 0.31 0.31 89 1013.6
20200531011544 52 0 0.0 2.6 0.00 0.31 0.31 90 1013.5
20200531011027 52 0 0.0 2.6 0.00 0.31 0.31 86 1013.6
20200531010523 52 317 0.9 4.3 0.00 0.31 0.31 86 1013.6
20200531010038 52 282 1.7 4.3 0.00 0.31 0.31 87 1013.3
20200531005534 52 253 0.0 1.7 0.00 0.31 0.31 89 1013.6
20200531005026 52 279 0.9 2.6 0.00 0.31 0.31 92 1013.6
20200531004543 52 0 0.0 2.6 0.00 0.31 0.31 91 1013.6
20200531004027 52 304 0.9 2.6 0.00 0.31 0.31 91 1013.5
20200531003526 53 286 0.9 3.5 0.01 0.31 0.31 91 1013.4
20200531003035 53 286 0.9 4.3 0.01 0.31 0.31 91 1013.3
20200531002522 53 277 0.9 5.2 0.02 0.31 0.31 90 1013.1
20200531002026 52 274 1.7 5.2 0.03 0.31 0.31 91 1013.3
20200531001546 53 220 0.9 5.2 0.05 0.31 0.31 91 1013.5
20200531001029 53 250 1.7 6.1 0.08 0.31 0.31 91 1013.4
20200531000527 53 211 1.7 7.0 0.11 0.31 0.31 90 1013.5
20200531000051 53 232 3.5 8.7 0.13 0.31 0.31 91 1013.3
20200530235523 53 262 3.5 8.7 0.14 0.31 0.31 91 1013.3
20200530235028 53 215 1.7 6.1 0.16 0.31 0.31 92 1013.0
20200530234608 53 205 0.0 7.0 0.17 0.31 0.31 93 1013.1
20200530234023 52 302 2.6 7.0 0.18 0.31 0.31 93 1013.4
20200530233523 52 201 0.9 9.6 0.18 0.30 0.30 93 1013.5
20200530233034 52 248 5.2 10.4 0.20 0.30 0.30 92 1013.3
20200530232529 52 242 4.3 10.4 0.21 0.29 0.29 91 1011.9
20200530232023 53 308 2.6 7.0 0.20 0.27 0.27 92 1012.4
20200530231556 53 302 1.7 6.1 0.20 0.26 0.26 91 1013.5
20200530231023 53 278 0.0 2.6 0.18 0.23 0.23 92 1013.9
20200530230524 53 227 0.0 3.5 0.15 0.19 0.19 91 1014.0
20200530230048 53 227 0.9 3.5 0.13 0.17 0.17 89 1014.0
20200530225524 53 243 0.9 3.5 0.12 0.16 0.16 89 1014.1
20200530225029 53 236 1.7 4.3 0.11 0.15 0.15 88 1014.1
20200530224540 53 223 1.7 4.3 0.10 0.14 0.14 87 1014.3
20200530224028 54 251 1.7 3.5 0.09 0.13 0.13 87 1014.1
20200530223523 54 194 0.9 2.6 0.08 0.12 0.12 87 1014.4
20200530223131 54 180 0.9 3.5 0.07 0.10 0.10 87 1014.5
20200530222523 54 209 0.9 5.2 0.06 0.08 0.08 86 1013.9
20200530222024 54 269 0.9 5.2 0.05 0.07 0.07 86 1013.6
20200530221554 55 273 1.7 7.0 0.04 0.06 0.06 81 1013.3
20200530221035 55 258 1.7 7.0 0.04 0.05 0.05 79 1013.3
20200530220523 55 242 1.7 7.0 0.03 0.04 0.04 78 1013.1
20200530220057 55 200 3.5 8.7 0.03 0.04 0.04 78 1012.8
20200530215523 55 259 5.2 8.7 0.03 0.04 0.04 78 1012.7
20200530215046 56 261 4.3 8.7 0.03 0.04 0.04 77 1012.6
20200530214549 56 227 3.5 7.0 0.03 0.04 0.04 80 1012.4
20200530214023 57 171 1.7 7.8 0.03 0.04 0.04 80 1012.4
20200530213524 57 252 3.5 7.8 0.03 0.04 0.04 78 1011.9
20200530213037 58 197 1.7 7.0 0.02 0.03 0.03 77 1011.5
20200530212524 57 228 3.5 8.7 0.01 0.02 0.02 76 1011.0
20200530212024 57 214 1.7 8.7 0.01 0.02 0.02 77 1011.1
20200530211542 58 242 3.5 8.7 0.01 0.02 0.02 72 1010.6
20200530211023 58 236 2.6 7.0 0.00 0.01 0.01 67 1010.7
20200530210531 59 225 2.6 7.0 0.00 0.01 0.01 65 1011.0
20200530210041 59 245 1.7 6.1 0.00 0.01 0.01 62 1010.8
20200530205523 60 227 0.9 7.8 0.00 0.01 0.01 60 1010.6
20200530205023 60 268 2.6 7.8 0.00 0.01 0.01 61 1010.8
20200530204640 60 257 2.6 7.8 0.00 0.01 0.01 60 1010.4
20200530204023 60 303 2.6 7.8 0.00 0.01 0.01 62 1010.3
20200530203530 59 205 4.3 7.8 0.00 0.01 0.01 60 1010.3
20200530203026 59 284 1.7 7.8 0.00 0.01 0.01 62 1010.3
20200530202524 59 246 0.9 9.6 0.00 0.01 0.01 62 1010.3
20200530202024 59 305 3.5 10.4 0.00 0.01 0.01 61 1010.3
20200530201530 59 252 5.2 10.4 0.00 0.01 0.01 60 1010.2
20200530201030 59 229 4.3 10.4 0.00 0.01 0.01 58 1010.2
20200530200523 60 251 1.7 7.0 0.00 0.01 0.01 59 1010.1
20200530200121 60 170 2.6 11.3 0.00 0.01 0.01 63 1010.1
20200530195523 60 0 3.5 11.3 0.00 0.01 0.01 64 1010.2
20200530195023 59 302 3.5 10.4 0.00 0.01 0.01 64 1010.2
20200530194552 59 244 5.2 10.4 0.00 0.01 0.01 63 1010.2
20200530194039 60 216 4.3 10.4 0.00 0.01 0.01 62 1010.1
20200530193523 61 242 4.3 8.7 0.00 0.01 0.01 60 1010.1
20200530193101 61 211 2.6 7.8 0.00 0.01 0.01 60 1010.1
20200530192527 62 190 3.5 7.8 0.00 0.01 0.01 60 1010.1
20200530192034 62 224 3.5 8.7 0.00 0.01 0.01 61 1010.1
20200530191535 62 144 2.6 9.6 0.00 0.01 0.01 61 1010.1
20200530191022 61 270 2.6 11.3 0.00 0.01 0.01 61 1010.2
20200530190526 61 257 3.5 12.2 0.00 0.01 0.01 63 1010.4
20200530190111 61 277 5.2 12.2 0.00 0.01 0.01 61 1010.4
20200530185522 61 207 3.5 9.6 0.00 0.01 0.01 63 1010.0
20200530185023 60 289 3.5 9.6 0.00 0.01 0.01 64 1010.1
20200530184531 60 217 2.6 11.3 0.00 0.01 0.01 68 1009.9
20200530184023 59 254 7.0 11.3 0.00 0.01 0.01 68 1009.8
20200530183523 59 269 4.3 13.0 0.00 0.01 0.01 66 1009.9
20200530183034 59 249 3.5 13.0 0.00 0.01 0.01 66 1009.9
20200530182523 60 211 3.5 10.4 0.00 0.01 0.01 67 1009.8
20200530182023 59 188 4.3 8.7 0.00 0.01 0.01 67 1009.7
20200530181550 59 239 4.3 10.4 0.00 0.01 0.01 67 1009.8
20200530181029 59 194 2.6 10.4 0.00 0.01 0.01 73 1009.8
20200530180525 59 193 4.3 9.6 0.00 0.01 0.01 71 1009.9
20200530180055 59 269 3.5 8.7 0.00 0.01 0.01 75 1009.6
20200530175544 59 178 2.6 7.8 0.00 0.01 0.01 78 1009.6
20200530175023 58 186 3.5 7.8 0.00 0.01 0.01 77 1009.7
20200530174546 57 185 2.6 6.1 0.00 0.01 0.01 79 1009.7
20200530174023 56 213 1.7 7.8 0.00 0.01 0.01 79 1009.6
20200530173523 56 250 3.5 7.8 0.00 0.01 0.01 79 1009.6
20200530173027 55 251 4.3 7.8 0.00 0.01 0.01 80 1009.4
20200530172529 56 269 3.5 7.8 0.00 0.01 0.01 78 1009.3
20200530172022 56 319 1.7 7.0 0.00 0.01 0.01 78 1009.3
20200530171557 56 291 2.6 7.0 0.00 0.01 0.01 76 1009.5
20200530171039 56 360 2.6 7.8 0.00 0.01 0.01 79 1009.3
20200530170525 56 298 3.5 7.8 0.00 0.01 0.01 77 1009.3
20200530170029 56 228 3.5 6.1 0.00 0.01 0.01 77 1009.2
20200530165524 56 240 2.6 6.1 0.00 0.01 0.01 76 1009.0
20200530165030 56 254 0.9 6.1 0.00 0.01 0.01 75 1008.9
20200530164545 56 0 0.9 6.1 0.00 0.01 0.01 79 1008.8
20200530164031 56 0 0.0 5.2 0.00 0.01 0.01 77 1008.8
20200530163523 56 9 2.6 5.2 0.00 0.01 0.01 77 1008.8
20200530163035 56 11 1.7 5.2 0.00 0.01 0.01 76 1008.9
20200530162530 57 360 0.0 3.5 0.00 0.01 0.01 84 1008.9
20200530162023 56 51 0.9 2.6 0.00 0.01 0.01 85 1008.9
20200530161526 55 0 0.0 2.6 0.00 0.01 0.01 85 1008.8
20200530161024 55 94 0.0 3.5 0.00 0.01 0.01 87 1009.0
20200530160528 54 297 0.9 3.5 0.00 0.01 0.01 83 1008.8
20200530160032 54 281 0.9 3.5 0.01 0.01 0.01 84 1008.8
20200530155526 54 341 1.7 4.3 0.01 0.01 0.01 82 1008.8
20200530155025 54 0 0.0 6.1 0.01 0.01 0.01 84 1008.8
20200530154539 55 254 2.6 7.0 0.01 0.01 0.01 84 1008.9
20200530154032 56 267 3.5 7.0 0.01 0.01 0.01 83 1009.1
20200530153541 55 208 0.9 3.5 0.01 0.01 0.01 85 1009.5
20200530153055 55 269 1.7 3.5 0.01 0.01 0.01 83 1009.4
20200530152525 55 57 0.9 3.5 0.01 0.01 0.01 87 1009.5
20200530152033 54 105 0.0 7.0 0.01 0.01 0.01 87 1009.8
20200530151607 53 39 1.7 8.7 0.01 0.01 0.01 88 1009.6
20200530151029 52 15 4.3 8.7 0.01 0.01 0.01 87 1009.0
20200530150530 53 344 4.3 8.7 0.01 0.01 0.01 87 1009.0
20200530150036 53 340 4.3 7.8 0.00 0.00 0.00 86 1009.1
20200530145524 53 0 0.0 6.1 0.00 0.00 0.00 87 1010.1
20200530145029 53 113 0.9 7.0 0.00 0.00 0.00 86 1010.4
20200530144538 53 96 1.7 7.0 0.00 0.00 0.00 86 1010.2
20200530144035 53 0 0.9 6.1 0.00 0.00 0.00 85 1009.8
20200530143527 53 148 1.7 6.1 0.00 0.00 0.00 84 1009.5
20200530143024 53 140 1.7 5.2 0.00 0.00 0.00 84 1009.1
20200530142523 53 121 1.7 8.7 0.00 0.00 0.00 84 1008.8
20200530142022 53 0 3.5 13.9 0.00 0.00 0.00 81 1008.7
20200530141535 53 216 6.1 13.9 0.00 0.00 0.00 80 1008.4
20200530141025 53 327 5.2 14.8 0.00 0.00 0.00 80 1008.8
20200530140526 53 355 6.1 14.8 0.00 0.00 0.00 79 1009.0
20200530140029 53 341 5.2 9.6 0.00 0.00 0.00 78 1009.5
20200530135524 53 28 0.9 1.7 0.00 0.00 0.00 82 1010.0
20200530135052 54 0 0.0 1.7 0.00 0.00 0.00 79 1010.4
20200530134525 54 145 0.0 1.7 0.00 0.00 0.00 74 1010.0
20200530134025 54 145 0.0 1.7 0.00 0.00 0.00 74 1010.1
20200530133545 54 0 0.0 1.7 0.00 0.00 0.00 74 1010.4
20200530133052 54 0 0.0 2.6 0.00 0.00 0.00 74 1010.6
20200530132524 54 144 0.0 2.6 0.00 0.00 0.00 75 1011.1
20200530132023 54 181 0.0 6.1 0.00 0.00 0.00 74 1011.0
20200530131557 54 0 1.7 7.0 0.00 0.00 0.00 76 1011.3
20200530131023 54 179 1.7 7.0 0.00 0.00 0.00 79 1011.5
20200530130543 54 110 0.9 4.3 0.00 0.00 0.00 80 1011.4
20200530130026 54 138 1.7 3.5 0.00 0.00 0.00 80 1010.9
20200530125525 53 352 0.9 1.7 0.00 0.00 0.00 79 1010.4
20200530125024 53 352 0.0 1.7 0.00 0.00 0.00 79 1009.9
20200530124551 53 0 0.0 0.9 0.00 0.00 0.00 80 1009.3
20200530124022 53 355 0.0 0.9 0.00 0.00 0.00 78 1009.3
20200530123534 53 0 0.0 1.7 0.00 0.00 0.00 77 1009.1
20200530123048 54 0 0.0 1.7 0.00 0.00 0.00 75 1009.2
20200530122529 53 0 0.0 1.7 0.00 0.00 0.00 77 1009.4
20200530122038 53 0 0.0 1.7 0.00 0.00 0.00 78 1009.5
20200530121540 54 0 0.9 2.6 0.00 0.00 0.00 76 1009.4
20200530121024 54 0 0.0 2.6 0.00 0.00 0.00 75 1009.1
20200530120533 54 355 1.7 4.3 0.00 0.00 0.00 73 1009.2
20200530120105 54 355 1.7 4.3 0.00 0.00 0.00 73 1009.3
20200530115523 54 9 1.7 7.0 0.00 0.00 0.00 72 1009.4
20200530115024 54 345 2.6 7.0 0.00 0.00 0.00 72 1009.3
20200530114547 55 34 1.7 5.2 0.00 0.00 0.00 72 1009.2
20200530114023 55 0 1.7 6.1 0.00 0.00 0.00 70 1009.3
20200530113532 55 333 1.7 6.1 0.00 0.00 0.00 70 1009.2
20200530113027 54 34 0.9 3.5 0.00 0.00 0.00 74 1009.2
20200530112527 55 0 0.9 3.5 0.00 0.00 0.00 71 1009.1
20200530112023 56 286 0.9 3.5 0.00 0.00 0.00 67 1009.2
20200530111554 56 286 0.9 3.5 0.00 0.00 0.00 67 1009.2
20200530111026 55 293 0.0 2.6 0.00 0.00 0.00 69 1009.1
20200530110525 56 319 0.9 3.5 0.00 0.00 0.00 73 1009.1
20200530110029 56 355 0.0 4.3 0.00 0.00 0.00 69 1009.2
20200530105526 56 9 0.0 4.3 0.00 0.00 0.00 68 1009.2
20200530105025 56 56 1.7 3.5 0.00 0.00 0.00 66 1008.9
20200530104536 57 0 0.0 1.7 0.00 0.00 0.00 65 1008.9
20200530104035 57 65 0.9 3.5 0.00 0.00 0.00 65 1008.9
20200530103526 57 0 0.0 7.0 0.00 0.00 0.00 64 1008.8
20200530103042 57 254 0.9 7.0 0.00 0.00 0.00 64 1008.7
20200530102547 57 292 0.9 6.1 0.00 0.00 0.00 64 1008.7
20200530102025 58 310 2.6 6.1 0.00 0.00 0.00 64 1008.8
20200530101544 58 261 0.9 7.0 0.00 0.00 0.00 64 1008.9
20200530101025 58 335 1.7 7.0 0.00 0.00 0.00 64 1008.8
20200530100529 58 355 1.7 5.2 0.00 0.00 0.00 64 1008.9
20200530100056 58 184 1.7 7.0 0.00 0.00 0.00 64 1009.5
20200530095525 58 254 1.7 7.0 0.00 0.00 0.00 63 1009.1
20200530095026 58 350 2.6 7.0 0.00 0.00 0.00 63 1008.6
20200530094557 58 243 2.6 5.2 0.00 0.00 0.00 62 1009.1
20200530094032 58 192 0.9 6.1 0.00 0.00 0.00 62 1009.2
20200530093536 58 233 1.7 6.1 0.00 0.00 0.00 62 1008.7
20200530093046 58 340 0.9 6.1 0.00 0.00 0.00 62 1008.8
20200530092525 58 311 0.9 7.0 0.00 0.00 0.00 62 1009.0
20200530092041 59 282 2.6 7.0 0.00 0.00 0.00 61 1009.0
20200530091542 59 238 1.7 4.3 0.00 0.00 0.00 61 1009.2
20200530091025 59 282 0.9 4.3 0.00 0.00 0.00 62 1009.1
20200530090525 59 289 1.7 4.3 0.00 0.00 0.00 62 1009.0
20200530090042 59 246 0.9 5.2 0.00 0.00 0.00 61 1008.9
20200530085526 59 283 2.6 5.2 0.00 0.00 0.00 61 1009.1
20200530085026 59 251 1.7 6.1 0.00 0.00 0.00 61 1009.1
20200530084605 59 282 1.7 6.1 0.00 0.00 0.00 61 1009.0
20200530084026 59 241 0.9 4.3 0.00 0.00 0.00 62 1009.0
20200530083528 59 302 0.9 3.5 0.00 0.00 0.00 62 1009.0
20200530083108 58 267 1.7 3.5 0.00 0.00 0.00 62 1009.1
20200530082529 58 0 0.9 2.6 0.00 0.00 0.00 65 1009.0